This is the latest recevied weather packets stored in our database for station/object KA0EGE. If no packets are shown the sender has not sent any weather packets the latest 10 day(s).
| Time | Temp. | Humidity | Pressure | Rain* | Wind** | Luminosity | Snow |
|---|---|---|---|---|---|---|---|
| 1778118677 | 23.33° C | 94% | 1016.1 hPa | 0 mm | - | 0 W/m² | - |
| 1778118373 | 23.33° C | 94% | 1016.3 hPa | 0 mm | - | 0 W/m² | - |
| 1778118069 | 23.33° C | 93% | 1016.1 hPa | 0 mm | - | 0 W/m² | - |
| 1778117766 | 23.33° C | 93% | 1016.6 hPa | 0 mm | - | 0 W/m² | - |
| 1778117463 | 23.33° C | 92% | 1016.4 hPa | 0 mm | - | 0 W/m² | - |
| 1778117160 | 23.33° C | 92% | 1016.5 hPa | 0 mm | - | 0 W/m² | - |
| 1778116856 | 23.89° C | 91% | 1016.4 hPa | 0 mm | - | 0 W/m² | - |
| 1778116554 | 23.89° C | 91% | 1016.3 hPa | 0 mm | - | 0 W/m² | - |
| 1778116250 | 23.89° C | 90% | 1016.5 hPa | 0 mm | - | 0 W/m² | - |
| 1778115945 | 23.89° C | 89% | 1016.9 hPa | 0 mm | - | 0 W/m² | - |
| 1778115641 | 23.89° C | 89% | 1017 hPa | 0 mm | - | 0 W/m² | - |
| 1778115339 | 23.89° C | 88% | 1017 hPa | 0 mm | - | 0 W/m² | - |
| 1778115035 | 23.89° C | 87% | 1016.8 hPa | 0 mm | - | 0 W/m² | - |
| 1778114732 | 23.89° C | 86% | 1016.7 hPa | 0 mm | - | 0 W/m² | - |
| 1778114429 | 23.89° C | 86% | 1016.9 hPa | 0 mm | - | 0 W/m² | - |
| 1778114125 | 24.44° C | 85% | 1016.6 hPa | 0 mm | - | 0 W/m² | - |
| 1778113820 | 24.44° C | 84% | 1016.6 hPa | 0 mm | - | 1 W/m² | - |
| 1778113517 | 24.44° C | 83% | 1016.5 hPa | 0 mm | - | 2 W/m² | - |
| 1778113213 | 24.44° C | 83% | 1016.5 hPa | 0 mm | - | 3 W/m² | - |
| 1778112909 | 24.44° C | 82% | 1016.7 hPa | 0 mm | - | 4 W/m² | - |
| 1778112607 | 24.44° C | 82% | 1016.4 hPa | 0 mm | - | 6 W/m² | - |
| 1778112303 | 25° C | 82% | 1016.5 hPa | 0 mm | - | 8 W/m² | - |
| 1778111998 | 25° C | 82% | 1016.3 hPa | 0 mm | - | 12 W/m² | - |
| 1778111696 | 25° C | 82% | 1016 hPa | 0 mm | - | 28 W/m² | - |
| 1778111392 | 25° C | 81% | 1016.1 hPa | 0 mm | - | 36 W/m² | - |
* Rain latest hour (hover to see other rain measurements)
** Current wind speed in m/s (hover to see current wind gust speed)